{"data":{"norad_id":59340,"intl_designator":"2024-057W","name":"STARLINK-31562","alt_names":[],"object_type":"PAYLOAD","status":"ACTIVE","operator":null,"country":"US","launch_date":"2024-03-25","launch_site_code":"AFETR","launch_vehicle":null,"mission":null,"orbit_class":"UNKNOWN","rcs_meters":null,"size_class":null,"mass_kg":null,"dimensions":null,"purposes":["comms"],"wikipedia_slug":null,"has_3d_model":false,"image_url":null,"decayed_at":null,"tle_current":{"epoch":"2026-09-21T04:18:49.481568Z","epoch_age_seconds":103533,"freshness":"FRESH","line1":"1 59340U 24057W   26264.17973937  .00000256  00000+0  18842-4 0  9994","line2":"2 59340  43.0021 178.0314 0001135 270.7342  89.3379 15.27577727139565","mean_motion":15.27577727,"eccentricity":0.0001135,"inclination_deg":43.0021,"raan_deg":178.0314,"arg_perigee_deg":270.7342,"mean_anomaly_deg":89.3379,"bstar":1.8842e-5,"rev_number":13956,"period_min":94.266888980373,"perigee_km":482.2771568334,"apogee_km":483.8346476222,"semimajor_km":6861.1929022278,"source":"CELESTRAK","updated_at":"2026-09-22T09:00:48.902090Z"}}}